User: anonymous   Login
Location: Zagreb
(45.8000°N, 16.0000°E)
Time: 00:46:19
(UTC+01:00)
Language:

Explorer 11/Cluster Stage 4 - Orbit

View from above orbital plane
View from above orbital plane
View from above satellite
View from above satellite

Ground track
Ground track

The orbit data is extracted from the following two-line orbital elements,

1   107U 61013A   20025.06200683  .00000286  00000-0  15566-4 0  9996
2   107  28.7896 276.8954 0547097 218.1980 137.8587 14.08895387945394
Epoch (UTC): 25 January 2020 01:29:17
Eccentricity: 0.0547097
inclination: 28.7896°
perigee height: 467 km
apogee height: 1259 km
right ascension of ascending node: 276.8954°
argument of perigee: 218.1980°
revolutions per day: 14.08895387
mean anomaly at epoch: 137.8587°
orbit number at epoch: 94539

The dashed part of the orbit path shows where the satellite is in the earth's shadow,  

DLR